weather.gov     
National Weather Service

Terminal Aerodrome Forecast
NWS Homepage
This page is being discontinued on March 12, 2014.
The same data is available at this site. Please update your bookmarks.
Thank you, and we apologize for the inconvenience.
Please send an email to SR-SRH.Webmaster@noaa.gov with any concerns.


Current Version
Previous Version:    01  02  03  04  05  06  07  08  09  10  11  12  13  14  15  16  17  18  19  20  21  22  23  24  25  
[Printable]
861
FTUS43 KGLD 222337
TAFGLD
TAF
KGLD 222337Z 2300/2324 33021G27KT P6SM SCT100 BKN200
     FM231000 33025G35KT P6SM OVC013
     FM231200 34025G35KT 3SM -SN BR OVC013
     FM231500 35035G45KT 1SM -SN BLSN SCT003 OVC007
     FM232000 34030G40KT 6SM -SN BLSN BKN010=


861
FTUS43 KGLD 222337
TAFGLD
TAF
KGLD 222337Z 2300/2324 33021G27KT P6SM SCT100 BKN200
     FM231000 33025G35KT P6SM OVC013
     FM231200 34025G35KT 3SM -SN BR OVC013
     FM231500 35035G45KT 1SM -SN BLSN SCT003 OVC007
     FM232000 34030G40KT 6SM -SN BLSN BKN010=




U.S. Dept. of Commerce
NOAA National Weather Service
1325 East West Highway
Silver Spring, MD 20910
E-mail: w-nws.webmaster@noaa.gov
Page last modified: May 16, 2007
NATIONAL WEATHER SERVICE: for Safety, for Work, for Fun - FOR LIFE